Location: McFarlands Corners
(41.4117°N, 81.3382°W)
Time: 12:15:52
(UTC+00:00)

Transit 4A - Pass Details

Date: 16 February 2026
Orbit: 863 x 978 km, 66.8° (Epoch: 17 March)

Event Time Altitude Azimuth Distance (km) Brightness Sun altitude
Rises 16:01:24 0° 339° (NNW) 3,586 10.4 31.8°
Reaches altitude 10° 16:05:38 10° 7° (N) 2,667 10.0 32.2°
Maximum altitude 16:08:22 13° 33° (NNE) 2,468 10.0 32.5°
Drops below altitude 10° 16:11:08 10° 60° (ENE) 2,694 10.4 32.7°
Sets 16:15:26 0° 87° (E) 3,656 11.3 33.0°
